Location: Montreal
(45.5000°N, 73.5833°W)
Time: 12:49:17
(UTC-04:00)

Tiangong 1 - Pass Details

Date: 16 October 2017
Orbit: 294 x 320 km, 42.8° (Epoch: 18 October)

Event Time Altitude Azimuth Distance (km) Brightness Sun altitude
Rises 18:51:30 0° 269° (W) 2,046 7.2 -8.6°
Reaches altitude 10° 18:53:57 10° 246° (WSW) 1,209 4.9 -9.0°
Maximum altitude 18:55:43 16° 205° (SSW) 936 3.4 -9.3°
Drops below altitude 10° 18:57:27 10° 164° (SSE) 1,197 3.4 -9.7°
Enters shadow 18:59:06 - 146° (SE) 1,733 4.1 -9.9°
